Time,TemperatureF,DewpointF,PressureIn,WindDirection,WindDirectionDegrees,WindSpeedMPH,WindSpeedGustMPH,Humidity,HourlyPrecipIn,Conditions,Clouds,dailyrainin,SoftwareType,DateUTC
2013-08-23 00:22:00,72.0,69.0,-100.00,NE,55,7.0,11.0,90,-99.99,,,-99.99,,2013-08-23 05:22:00,
2013-08-23 00:52:00,72.0,69.0,-100.00,NE,55,4.0,8.0,90,-99.99,,,-99.99,,2013-08-23 05:52:00,
2013-08-23 01:22:00,71.0,69.0,-100.00,ENE,60,4.0,5.0,91,-99.99,,,-99.99,,2013-08-23 06:22:00,
2013-08-23 01:52:00,71.0,69.0,-100.00,ENE,65,2.0,4.0,92,-99.99,,,-99.99,,2013-08-23 06:52:00,
2013-08-23 02:22:00,71.0,68.0,-100.00,ENE,65,2.0,4.0,92,-99.99,,,-99.99,,2013-08-23 07:22:00,
2013-08-23 02:52:00,70.0,68.0,-100.00,ENE,65,2.0,4.0,92,-99.99,,,-99.99,,2013-08-23 07:52:00,
2013-08-23 03:22:00,70.0,68.0,-100.00,NE,50,1.0,3.0,93,-99.99,,,-99.99,,2013-08-23 08:22:00,
2013-08-23 03:52:00,69.0,67.0,-100.00,NE,50,1.0,3.0,93,-99.99,,,-99.99,,2013-08-23 08:52:00,
2013-08-23 04:21:00,69.0,67.0,-100.00,ENE,60,1.0,2.0,93,-99.99,,,-99.99,,2013-08-23 09:21:00,
2013-08-23 04:53:00,69.0,66.0,-100.00,NE,55,1.0,3.0,93,-99.99,,,-99.99,,2013-08-23 09:53:00,
2013-08-23 05:23:00,68.0,66.0,-100.00,NE,55,2.0,3.0,93,-99.99,,,-99.99,,2013-08-23 10:23:00,
2013-08-23 05:53:00,68.0,66.0,-100.00,NE,55,4.0,4.0,93,-99.99,,,-99.99,,2013-08-23 10:53:00,
2013-08-23 06:22:00,68.0,66.0,-100.00,ENE,65,3.0,4.0,93,-99.99,,,-99.99,,2013-08-23 11:22:00,
2013-08-23 06:53:00,68.0,66.0,-100.00,East,80,1.0,2.0,93,-99.99,,,-99.99,,2013-08-23 11:53:00,
2013-08-23 07:22:00,68.0,66.0,-100.00,NE,55,2.0,4.0,93,-99.99,,,-99.99,,2013-08-23 12:22:00,
2013-08-23 07:52:00,69.0,67.0,-100.00,ENE,65,2.0,4.0,93,-99.99,,,-99.99,,2013-08-23 12:52:00,
2013-08-23 08:22:00,70.0,68.0,-100.00,NNE,20,4.0,6.0,93,-99.99,,,-99.99,,2013-08-23 13:22:00,
2013-08-23 08:53:00,71.0,69.0,-100.00,North,10,5.0,8.0,93,-99.99,,,-99.99,,2013-08-23 13:53:00,
2013-08-23 09:22:00,73.0,71.0,-100.00,North,5,6.0,9.0,91,-99.99,,,-99.99,,2013-08-23 14:22:00,
2013-08-23 09:52:00,74.0,69.0,-100.00,North,5,7.0,10.0,84,-99.99,,,-99.99,,2013-08-23 14:52:00,
2013-08-23 10:22:00,77.0,67.0,-100.00,North,5,5.0,9.0,72,-99.99,,,-99.99,,2013-08-23 15:22:00,
2013-08-23 10:54:00,78.0,67.0,-100.00,North,5,8.0,14.0,69,-99.99,,,-99.99,,2013-08-23 15:54:00,
2013-08-23 11:24:00,78.0,67.0,-100.00,North,5,9.0,14.0,68,-99.99,,,-99.99,,2013-08-23 16:24:00,
2013-08-23 11:53:00,79.0,67.0,-100.00,North,5,5.0,13.0,68,-99.99,,,-99.99,,2013-08-23 16:53:00,
2013-08-23 12:24:00,81.0,67.0,-100.00,North,5,5.0,14.0,62,-99.99,,,-99.99,,2013-08-23 17:24:00,
2013-08-23 12:54:00,81.0,65.0,-100.00,North,5,11.0,18.0,58,-99.99,,,-99.99,,2013-08-23 17:54:00,
2013-08-23 13:22:00,82.0,65.0,-100.00,North,5,9.0,16.0,57,-99.99,,,-99.99,,2013-08-23 18:22:00,
2013-08-23 13:52:00,83.0,65.0,-100.00,North,5,12.0,16.0,54,-99.99,,,-99.99,,2013-08-23 18:52:00,
2013-08-23 14:22:00,84.0,64.0,-100.00,North,5,6.0,12.0,51,-99.99,,,-99.99,,2013-08-23 19:22:00,
2013-08-23 14:52:00,84.0,64.0,-100.00,North,5,7.0,15.0,52,-99.99,,,-99.99,,2013-08-23 19:52:00,
2013-08-23 15:22:00,84.0,64.0,-100.00,North,5,4.0,16.0,51,-99.99,,,-99.99,,2013-08-23 20:22:00,
2013-08-23 15:52:00,85.0,64.0,-100.00,North,5,6.0,11.0,50,-99.99,,,-99.99,,2013-08-23 20:52:00,
2013-08-23 16:22:00,85.0,62.0,-100.00,North,5,11.0,14.0,46,-99.99,,,-99.99,,2013-08-23 21:22:00,
2013-08-23 16:54:00,85.0,63.0,-100.00,North,5,9.0,13.0,47,-99.99,,,-99.99,,2013-08-23 21:54:00,
2013-08-23 17:24:00,85.0,63.0,-100.00,North,5,6.0,14.0,48,-99.99,,,-99.99,,2013-08-23 22:24:00,
2013-08-23 17:53:00,85.0,64.0,-100.00,North,5,9.0,13.0,49,-99.99,,,-99.99,,2013-08-23 22:53:00,
2013-08-23 18:22:00,85.0,63.0,-100.00,North,5,9.0,11.0,48,-99.99,,,-99.99,,2013-08-23 23:22:00,
2013-08-23 18:54:00,85.0,63.0,-100.00,North,5,5.0,10.0,48,-99.99,,,-99.99,,2013-08-23 23:54:00,
2013-08-23 19:22:00,83.0,63.0,-100.00,North,5,9.0,11.0,51,-99.99,,,-99.99,,2013-08-24 00:22:00,
2013-08-23 19:53:00,81.0,63.0,-100.00,North,5,8.0,15.0,54,-99.99,,,-99.99,,2013-08-24 00:53:00,
2013-08-23 20:22:00,80.0,64.0,-100.00,North,5,6.0,9.0,58,-99.99,,,-99.99,,2013-08-24 01:22:00,
2013-08-23 20:53:00,78.0,65.0,-100.00,North,5,6.0,9.0,63,-99.99,,,-99.99,,2013-08-24 01:53:00,
2013-08-23 21:22:00,77.0,65.0,-100.00,North,5,6.0,9.0,66,-99.99,,,-99.99,,2013-08-24 02:22:00,
2013-08-23 21:52:00,76.0,65.0,-100.00,North,10,6.0,10.0,67,-99.99,,,-99.99,,2013-08-24 02:52:00,
2013-08-23 22:22:00,76.0,64.0,-100.00,North,10,6.0,11.0,66,-99.99,,,-99.99,,2013-08-24 03:22:00,
2013-08-23 22:55:00,75.0,63.0,-100.00,North,10,6.0,10.0,67,-99.99,,,-99.99,,2013-08-24 03:55:00,
2013-08-23 23:24:00,74.0,64.0,-100.00,North,10,6.0,9.0,70,-99.99,,,-99.99,,2013-08-24 04:24:00,
2013-08-23 23:54:00,74.0,62.0,-100.00,North,10,8.0,14.0,67,-99.99,,,-99.99,,2013-08-24 04:54:00,